Location: Newark
(30.0333°N, 31.2167°E)
Time: 16:14:13
(UTC+00:00)

Vanguard 2 - Visible Passes

Search period start: 19 January 2021 00:00
Search period end: 29 January 2021 00:00
Orbit: 553 x 2937 km, 32.9° (Epoch: 18 January)

Date Brightness Start Highest point End Pass type
(mag) Time Alt. Az. Time Alt. Az. Time Alt. Az.
19 Jan 8.0 17:26:23 10° W 17:31:36 69° N 17:32:08 66° NNE visible
20 Jan 8.1 17:44:14 10° WNW 17:48:56 66° NNW 17:48:56 66° NNW visible
21 Jan 7.5 15:54:20 10° W 15:58:34 69° N 16:04:21 11° ENE visible
21 Jan 8.6 18:02:02 10° WNW 18:05:45 50° WNW 18:05:45 50° WNW visible
22 Jan 7.6 16:12:12 10° W 16:16:30 64° N 16:21:11 17° ENE visible
22 Jan 9.2 18:19:50 10° WNW 18:22:35 35° WNW 18:22:35 35° WNW visible
23 Jan 7.6 16:30:04 10° WNW 16:34:26 64° N 16:38:02 24° E visible
23 Jan 9.8 18:37:38 10° WNW 18:39:27 24° W 18:39:27 24° W visible
24 Jan 7.5 16:47:53 10° WNW 16:52:21 71° N 16:54:57 34° E visible
24 Jan 10.3 18:55:29 10° W 18:56:22 16° W 18:56:22 16° W visible
25 Jan 7.5 17:05:41 10° WNW 17:10:15 83° NNE 17:11:53 49° E visible
26 Jan 7.6 17:23:28 10° WNW 17:28:07 79° SSW 17:28:53 66° SE visible
27 Jan 8.0 17:41:18 10° W 17:45:55 60° SSW 17:45:55 60° SSW visible
28 Jan 7.1 15:51:25 10° WNW 15:55:24 73° N 16:00:34 10° E visible
28 Jan 8.7 17:59:13 10° W 18:03:01 40° SW 18:03:01 40° SW visible
